• en Belgique
  • Liste des pays
  • À 7 jours
  • Température de l'eau
  • Carte satellitaire
  • Carte météo
  • Widgets météo
  • user-avatar
    Se connecter

    Météo par heure à Pravda

    Ce jour, 15 Novembre, Jeudi

    Heure Température Précipitation Vent Pression Humidité
    00:00 -3°C° 0 mm 2 m/s 756 mmHg 79%
    01:00 -3°C° 0 mm 2 m/s 757 mmHg 81%
    02:00 -3°C° 0 mm 2 m/s 757 mmHg 81%
    03:00 -3°C° 0 mm 2 m/s 758 mmHg 82%
    04:00 -3°C° 0 mm 2 m/s 758 mmHg 82%
    05:00 -3°C° 0 mm 2 m/s 758 mmHg 83%
    06:00 -3°C° 0 mm 2 m/s 759 mmHg 81%
    07:00 -3°C° 0 mm 2 m/s 759 mmHg 79%
    08:00 -2°C° 0 mm 2 m/s 760 mmHg 77%
    09:00 -2°C° 0 mm 2 m/s 760 mmHg 74%
    10:00 -1°C° 0 mm 2 m/s 761 mmHg 71%
    11:00 -1°C° 0 mm 2 m/s 761 mmHg 68%
    12:00 -1°C° 0 mm 2 m/s 762 mmHg 68%
    13:00 -1°C° 0 mm 2 m/s 762 mmHg 68%
    14:00 +1°C° 0 mm 1 m/s 762 mmHg 68%
    15:00 +1°C° 0 mm 1 m/s 762 mmHg 70%
    16:00 0°C° 0 mm 1 m/s 763 mmHg 72%
    17:00 0°C° 0 mm 1 m/s 763 mmHg 74%
    18:00 -1°C° 0 mm 1 m/s 764 mmHg 74%
    19:00 -1°C° 0 mm 1 m/s 764 mmHg 74%
    20:00 -1°C° 0 mm 1 m/s 764 mmHg 74%
    21:00 -1°C° 0 mm 1 m/s 765 mmHg 74%
    22:00 -1°C° 0 mm 1 m/s 765 mmHg 75%
    23:00 -1°C° 0 mm 1 m/s 765 mmHg 75%

    Demain, 16 Novembre, Vendredi

    Heure Température Précipitation Vent Pression Humidité
    00:00 -1°C° 0 mm 1 m/s 765 mmHg 76%
    01:00 -1°C° 0 mm 1 m/s 766 mmHg 76%
    02:00 -1°C° 0 mm 1 m/s 766 mmHg 77%
    03:00 -1°C° 0 mm 1 m/s 766 mmHg 77%
    04:00 -1°C° 0 mm 1 m/s 766 mmHg 78%
    05:00 -1°C° 0 mm 1 m/s 767 mmHg 78%
    06:00 -1°C° 0 mm 1 m/s 767 mmHg 79%
    07:00 -1°C° 0 mm 1 m/s 767 mmHg 80%
    08:00 -3°C° 0 mm 2 m/s 767 mmHg 82%
    09:00 -2°C° 0 mm 2 m/s 767 mmHg 78%
    10:00 -1°C° 0 mm 2 m/s 768 mmHg 75%
    11:00 +1°C° 0 mm 2 m/s 768 mmHg 71%
    12:00 -1°C° 0 mm 2 m/s 768 mmHg 73%
    13:00 -1°C° 0 mm 2 m/s 768 mmHg 74%
    14:00 -1°C° 0 mm 2 m/s 767 mmHg 76%
    15:00 -1°C° 0 mm 2 m/s 767 mmHg 79%
    16:00 -2°C° 0 mm 2 m/s 767 mmHg 83%
    17:00 -2°C° 0 mm 2 m/s 767 mmHg 86%
    18:00 -3°C° 0 mm 2 m/s 767 mmHg 87%
    19:00 -3°C° 0 mm 2 m/s 767 mmHg 88%
    20:00 -3°C° 0 mm 2 m/s 767 mmHg 90%
    21:00 -3°C° 0 mm 2 m/s 767 mmHg 90%
    22:00 -3°C° 0 mm 2 m/s 767 mmHg 91%
    23:00 -3°C° 0 mm 2 m/s 766 mmHg 92%

    Après-demain, 17 Novembre, Samedi

    Heure Température Précipitation Vent Pression Humidité
    00:00 -4°C° 0 mm 3 m/s 766 mmHg 92%
    01:00 -4°C° 0 mm 3 m/s 766 mmHg 93%
    02:00 -4°C° 0 mm 3 m/s 765 mmHg 93%
    03:00 -4°C° 0 mm 3 m/s 765 mmHg 93%
    04:00 -2°C° 0 mm 3 m/s 764 mmHg 92%
    05:00 -2°C° 0 mm 3 m/s 764 mmHg 92%
    06:00 -2°C° 0 mm 3 m/s 763 mmHg 91%
    07:00 -3°C° 0 mm 4 m/s 763 mmHg 90%
    08:00 -3°C° 0 mm 4 m/s 762 mmHg 89%
    09:00 -2°C° 0.1 mm 4 m/s 762 mmHg 87%
    10:00 -2°C° 0.1 mm 4 m/s 761 mmHg 86%
    11:00 -1°C° 0.1 mm 4 m/s 760 mmHg 84%
    12:00 -1°C° 0.4 mm 4 m/s 760 mmHg 85%
    13:00 -1°C° 0.4 mm 4 m/s 759 mmHg 86%
    14:00 -1°C° 0.4 mm 4 m/s 758 mmHg 88%
    15:00 -1°C° 0.5 mm 4 m/s 757 mmHg 89%
    16:00 -1°C° 0.5 mm 4 m/s 757 mmHg 89%
    17:00 -1°C° 0.5 mm 4 m/s 756 mmHg 90%
    18:00 -1°C° 0.4 mm 4 m/s 755 mmHg 90%
    19:00 -1°C° 0.4 mm 4 m/s 754 mmHg 91%
    20:00 -1°C° 0.4 mm 4 m/s 753 mmHg 91%
    21:00 -1°C° 0.1 mm 4 m/s 753 mmHg 92%
    22:00 -1°C° 0.1 mm 4 m/s 752 mmHg 93%
    23:00 0°C° 0.1 mm 3 m/s 751 mmHg 94%

    18 Novembre, Dimanche

    Heure Température Précipitation Vent Pression Humidité
    00:00 0°C° 0.1 mm 3 m/s 751 mmHg 95%
    01:00 0°C° 0.1 mm 3 m/s 750 mmHg 95%
    02:00 0°C° 0.1 mm 3 m/s 750 mmHg 96%
    03:00 +1°C° 0.2 mm 2 m/s 749 mmHg 96%
    04:00 +1°C° 0.2 mm 2 m/s 749 mmHg 97%
    05:00 +1°C° 0.2 mm 2 m/s 748 mmHg 97%
    06:00 +1°C° 0.2 mm 2 m/s 748 mmHg 97%
    07:00 +2°C° 0.2 mm 1 m/s 748 mmHg 98%
    08:00 +2°C° 0.2 mm 1 m/s 748 mmHg 98%
    09:00 +2°C° 0.1 mm 1 m/s 749 mmHg 97%
    10:00 +2°C° 0.1 mm 1 m/s 749 mmHg 97%
    11:00 +3°C° 0.1 mm 1 m/s 749 mmHg 96%
    12:00 +3°C° 0.2 mm 1 m/s 750 mmHg 97%
    13:00 +3°C° 0.2 mm 1 m/s 750 mmHg 97%
    14:00 +3°C° 0.2 mm 1 m/s 751 mmHg 97%
    15:00 +2°C° 0.2 mm 1 m/s 751 mmHg 97%
    16:00 +1°C° 0.2 mm 2 m/s 752 mmHg 97%
    17:00 +1°C° 0.2 mm 2 m/s 752 mmHg 97%
    18:00 +1°C° 0.2 mm 2 m/s 753 mmHg 97%
    19:00 +1°C° 0.2 mm 2 m/s 753 mmHg 96%
    20:00 +1°C° 0.2 mm 2 m/s 753 mmHg 96%
    21:00 +1°C° 0 mm 2 m/s 754 mmHg 96%
    22:00 -1°C° 0 mm 2 m/s 754 mmHg 96%
    23:00 -1°C° 0 mm 2 m/s 755 mmHg 96%

    19 Novembre, Lundi

    Heure Température Précipitation Vent Pression Humidité
    00:00 -1°C° 0 mm 2 m/s 755 mmHg 96%
    01:00 -1°C° 0 mm 2 m/s 755 mmHg 96%
    02:00 -2°C° 0 mm 2 m/s 756 mmHg 96%
    03:00 -2°C° 0 mm 2 m/s 756 mmHg 96%
    04:00 -2°C° 0 mm 2 m/s 756 mmHg 96%
    05:00 -2°C° 0 mm 2 m/s 757 mmHg 96%
    06:00 -2°C° 0 mm 2 m/s 757 mmHg 95%
    07:00 -2°C° 0 mm 2 m/s 758 mmHg 95%
    08:00 -2°C° 0 mm 2 m/s 758 mmHg 95%
    09:00 -1°C° 0.1 mm 3 m/s 759 mmHg 94%
    10:00 -1°C° 0.1 mm 3 m/s 759 mmHg 93%
    11:00 0°C° 0.1 mm 3 m/s 760 mmHg 92%
    12:00 0°C° 0 mm 3 m/s 760 mmHg 92%
    13:00 +1°C° 0 mm 2 m/s 761 mmHg 91%
    14:00 +1°C° 0 mm 2 m/s 761 mmHg 91%
    15:00 -1°C° 0 mm 2 m/s 761 mmHg 92%
    16:00 -1°C° 0 mm 2 m/s 761 mmHg 93%
    17:00 -1°C° 0 mm 2 m/s 762 mmHg 94%
    18:00 0°C° 0 mm 1 m/s 762 mmHg 95%
    19:00 0°C° 0 mm 1 m/s 762 mmHg 95%
    20:00 0°C° 0 mm 1 m/s 762 mmHg 96%
    21:00 -1°C° 0 mm 1 m/s 762 mmHg 96%
    22:00 -1°C° 0 mm 1 m/s 763 mmHg 96%
    23:00 -1°C° 0 mm 1 m/s 763 mmHg 96%

    20 Novembre, Mardi

    Heure Température Précipitation Vent Pression Humidité
    00:00 -1°C° 0 mm 1 m/s 763 mmHg 96%
    01:00 -1°C° 0 mm 1 m/s 763 mmHg 95%
    02:00 -1°C° 0 mm 1 m/s 763 mmHg 95%
    03:00 -1°C° 0 mm 1 m/s 763 mmHg 95%
    04:00 -2°C° 0 mm 0 m/s 762 mmHg 95%
    05:00 -3°C° 0 mm 0 m/s 762 mmHg 95%
    06:00 -3°C° 0 mm 0 m/s 762 mmHg 95%
    07:00 -3°C° 0 mm 0 m/s 762 mmHg 95%
    08:00 -3°C° 0 mm 0 m/s 762 mmHg 95%
    09:00 -2°C° 0 mm 0 m/s 762 mmHg 92%
    10:00 -1°C° 0 mm 0 m/s 762 mmHg 90%
    11:00 0°C° 0 mm 1 m/s 762 mmHg 87%
    12:00 0°C° 0 mm 1 m/s 761 mmHg 88%
    13:00 0°C° 0 mm 1 m/s 761 mmHg 89%
    14:00 -1°C° 0 mm 0 m/s 761 mmHg 89%
    15:00 -1°C° 0 mm 1 m/s 761 mmHg 91%
    16:00 -2°C° 0 mm 1 m/s 760 mmHg 92%
    17:00 -2°C° 0 mm 1 m/s 760 mmHg 93%
    18:00 -2°C° 0 mm 1 m/s 760 mmHg 93%
    19:00 -3°C° 0 mm 1 m/s 760 mmHg 92%
    20:00 -3°C° 0 mm 1 m/s 760 mmHg 92%
    21:00 -3°C° 0 mm 1 m/s 760 mmHg 91%
    22:00 -3°C° 0 mm 1 m/s 760 mmHg 90%
    23:00 -3°C° 0 mm 1 m/s 760 mmHg 90%
    Voir plus